This demonstration page uses our WeatherBlox Daily Observations layout. Learn more.

Left ArrowRight Arrow

41.86663, -103.66717

Hourly Observations for August 18, 2022

Temp ( °F °C ) Dew Point ( °F °C ) Humidity (%) Winds ( mph kmh ) Pressure ( in mb ) Visibility ( mi km ) Precip ( " mm )
12:53 am 00:53 Clear 66 18.9 55 12.8 68 68 ESE 3 6 30.01 1016 10 16 0.00 0.00
1:53 am 01:53 Clear 64 17.8 55 12.8 73 73 E 3 6 30.00 1016 10 16 0.00 0.00
2:53 am 02:53 Mostly Clear 63 17.2 55 12.8 75 75 ENE 14 22 30.00 1016 10 16 0.00 0.00
3:53 am 03:53 Clear 61 16.1 56 13.3 83 83 NNE 6 9 30.01 1016 10 16 0.00 0.00
4:53 am 04:53 Clear 59 15 55 12.8 87 87 SSE 3 6 30.00 1016 10 16 0.00 0.00
5:53 am 05:53 Clear 58 14.4 54 12.2 87 87 S 3 6 30.01 1016 10 16 0.00 0.00
6:53 am 06:53 Sunny 59 15 55 12.8 87 87 NNW 7 11 30.03 1017 10 16 0.00 0.00
7:53 am 07:53 Sunny 63 17.2 54 12.2 72 72 WNW 7 11 30.05 1018 10 16 0.00 0.00
8:53 am 08:53 Sunny 69 20.6 56 13.3 63 63 NW 8 13 30.04 1017 10 16 0.00 0.00
9:53 am 09:53 Mostly Sunny 76 24.4 56 13.3 50 50 W 10 17 30.02 1017 10 16 0.00 0.00
10:53 am 10:53 Sunny 85 29.4 54 12.2 35 35 NNE 10 17 30.01 1016 10 16 0.00 0.00
11:53 am 11:53 Sunny 87 30.6 50 10 28 28 NNE 10 17 30.01 1016 10 16 0.00 0.00
12:53 pm 12:53 Sunny 89 31.7 48 8.9 24 24 VRB 6 9 29.99 1016 10 16 0.00 0.00
1:53 pm 13:53 Sunny 90 32.2 47 8.3 23 23 NE 12 19 29.98 1015 10 16 0.00 0.00
2:53 pm 14:53 Mostly Sunny 92 33.3 42 5.6 18 18 NNE 12 19 29.96 1014 10 16 0.00 0.00
3:53 pm 15:53 Partly Cloudy 89 31.7 45 7.2 22 22 N 12 19 29.95 1014 10 16 0.00 0.00
4:53 pm 16:53 Mostly Sunny 90 32.2 46 7.8 22 22 NE 8 13 29.93 1014 10 16 0.00 0.00
5:53 pm 17:53 Mostly Sunny 90 32.2 46 7.8 22 22 NNE 9 15 29.92 1013 10 16 0.00 0.00
6:53 pm 18:53 Mostly Sunny 86 30 51 10.6 30 30 ESE 6 9 29.92 1013 10 16 0.00 0.00
7:53 pm 19:53 Clear 77 25 55 12.8 47 47 NNE 5 7 29.92 1013 10 16 0.00 0.00
8:53 pm 20:53 Clear 72 22.2 56 13.3 57 57 E 5 7 29.94 1014 10 16 0.00 0.00
9:53 pm 21:53 Clear 68 20 53 11.7 59 59 NE 5 7 29.95 1014 10 16 0.00 0.00
10:53 pm 22:53 Clear 67 19.4 53 11.7 61 61 Calm 29.94 1014 10 16 0.00 0.00
11:53 pm 23:53 Mostly Clear 68 20 51 10.6 55 55 E 3 6 29.94 1014 10 16 0.00 0.00

Powered by AerisWeather